This is the latest recevied weather packets stored in our database for station/object OK1FET-4. If no packets are shown the sender has not sent any weather packets the latest 1 day(s).
| Time | Temp. | Humidity | Pressure | Rain* | Wind** | Luminosity | Snow |
|---|---|---|---|---|---|---|---|
| 1777986608 | 28.89° C | 58% | 1006.3 hPa | - | 1.79 m/s, 62° | - | - |
| 1777986608 | 28.89° C | 58% | 1006.3 hPa | - | 1.79 m/s, 62° | - | - |
| 1777986305 | 29.44° C | 69% | 1006.4 hPa | - | 1.34 m/s, 73° | - | - |
| 1777986305 | 29.44° C | 69% | 1006.4 hPa | - | 1.34 m/s, 73° | - | - |
| 1777986003 | 29.44° C | 58% | 1006.5 hPa | - | 1.34 m/s, 85° | - | - |
| 1777986003 | 29.44° C | 58% | 1006.5 hPa | - | 1.34 m/s, 85° | - | - |
| 1777986003 | 29.44° C | 58% | 1006.5 hPa | - | 1.34 m/s, 85° | - | - |
| 1777985701 | 28.89° C | 71% | 1006.6 hPa | - | 1.34 m/s, 6° | - | - |
| 1777985701 | 28.89° C | 71% | 1006.6 hPa | - | 1.34 m/s, 6° | - | - |
| 1777985399 | 28.33° C | 64% | 1006.6 hPa | - | 1.34 m/s, 47° | - | - |
| 1777985399 | 28.33° C | 64% | 1006.6 hPa | - | 1.34 m/s, 47° | - | - |
| 1777985399 | 28.33° C | 64% | 1006.6 hPa | - | 1.34 m/s, 47° | - | - |
| 1777985097 | 28.33° C | 71% | 1006.7 hPa | - | 1.79 m/s, 339° | - | - |
| 1777985097 | 28.33° C | 71% | 1006.7 hPa | - | 1.79 m/s, 339° | - | - |
| 1777985097 | 28.33° C | 71% | 1006.7 hPa | - | 1.79 m/s, 339° | - | - |
| 1777984795 | 28.33° C | 76% | 1006.8 hPa | - | 1.34 m/s, 22° | - | - |
| 1777984794 | 28.33° C | 76% | 1006.8 hPa | - | 1.34 m/s, 22° | - | - |
| 1777984493 | 27.78° C | 77% | 1006.8 hPa | - | 2.24 m/s, 19° | - | - |
| 1777984492 | 27.78° C | 77% | 1006.8 hPa | - | 2.24 m/s, 19° | - | - |
| 1777984190 | 27.78° C | 77% | 1006.8 hPa | - | 1.34 m/s, 15° | - | - |
| 1777984190 | 27.78° C | 77% | 1006.8 hPa | - | 1.34 m/s, 15° | - | - |
| 1777984190 | 27.78° C | 77% | 1006.8 hPa | - | 1.34 m/s, 15° | - | - |
| 1777983888 | 27.22° C | 67% | 1006.9 hPa | - | 1.34 m/s, 5° | - | - |
| 1777983888 | 27.22° C | 67% | 1006.9 hPa | - | 1.34 m/s, 5° | - | - |
| 1777983888 | 27.22° C | 67% | 1006.9 hPa | - | 1.34 m/s, 5° | - | - |
* Rain since midnight (hover to see other rain measurements)
** Current wind speed in m/s (hover to see current wind gust speed)